Powrót do katalogu

CZ-4 DEB

AktywnySSO
NORAD 20870·DEBRIS·🇨🇳 China

Wystrzelony Sep 3, 1990 z Taiyuan Satellite Launch Center

Loading…

Następne Przeloty (najbliższe 24 godziny)

TLE

ŚwieżeSource: Space-Track

Epoka: Sep 14, 2026, 09:42 UTC

1 20870U 90081AJ  26257.40469671  .00000338  00000-0  20325-3 0  9993
2 20870  98.9029 242.5401 0033755  96.6855  61.7162 14.13168572845442

Śledź CZ-4 DEB w czasie rzeczywistym z AllMySat

Download on the App Store